Flag for Germany Weather past 2 weeks in Herzogenrath, North Rhine-Westphalia, Germany

Now
70 °F

Passing clouds.


Feels Like: 70 °F
Forecast: 52 / 68 °F
Wind: 8 mph from Southwest

Location: Geilenkirchen Airport

Current Time: Oct 1, 2014 at 2:29:12 PM

Latest Report: Oct 1, 2014 at 1:50 PM


Visibility: N/A

Pressure: 30.33 "Hg

Humidity: 69%

Dew point: 59 °F

Location of HerzogenrathLocation

Historic Weather in Herzogenrath — Graph

°F

Herzogenrath temperature yesterday

Maximum temperature yesterday: 70 °F (at 3:50 PM)
Minimum temperature yesterday: 57 °F (at 9:50 PM)
Average temperature yesterday: 63 °F

Past Weeks' High & Low Weather Summary

 TemperatureHumidityPressure
High70 °F (Sep 27, 2:50 PM)100% (Sep 17, 7:50 AM)30.39 "Hg (Sep 17, 7:50 AM)
Low45 °F (Sep 23, 3:50 AM)0% (Sep 24, 10:50 PM)29.86 "Hg (Sep 24, 4:50 PM)
Average59 °F84%30.17 "Hg
* Reported Sep 17 7:50 AM — Oct 1 12:50 PM, Herzogenrath, Weather by CustomWeather, © 2014

Note: Actual official high and low records may vary slightly from our data, if they occured in-between our weather recording intervals... More about our weather records

Advertising

Herzogenrath weather history for previous 24 hours

 ConditionsComfort  
Time TempWeatherWind HumidityBarometerVisibility
12:50 PM
Oct 1
68 °FPassing clouds.9 mph73%30.33 "HgN/A
11:50 AM66 °FPassing clouds.10 mph78%30.33 "HgN/A
10:50 AM64 °FSunny.6 mph78%30.33 "Hg10 mi
9:50 AM61 °FPassing clouds.6 mph88%30.33 "Hg5 mi
8:50 AM57 °FFog.3 mph94%30.33 "Hg3 mi
7:50 AM57 °FFog.2 mph94%30.30 "Hg2 mi
6:50 AM57 °FFog.5 mph100%30.30 "Hg3 mi
5:50 AM59 °FClear.5 mph94%30.30 "Hg10 mi
4:50 AM59 °FClear.3 mph94%30.30 "Hg10 mi
3:50 AM61 °FPartly cloudy.3 mph94%30.30 "HgN/A
2:50 AM61 °FLight rain. Fog.5 mph94%30.30 "Hg2 mi
1:50 AM61 °FLight rain. Partly cloudy.7 mph94%30.30 "Hg4 mi
12:50 AM61 °FPassing clouds.5 mph94%30.30 "HgN/A
11:50 PM
Sep 30
61 °FPartly cloudy.No wind88%30.30 "HgN/A
10:50 PM59 °FClear.No wind94%30.30 "Hg10 mi
9:50 PM57 °FClear.No wind94%30.30 "Hg10 mi
8:50 PM59 °FClear.2 mph94%30.30 "Hg10 mi
7:50 PM63 °FSunny.No wind88%30.30 "Hg10 mi
6:50 PM68 °FSunny.2 mph69%30.27 "Hg10 mi
5:50 PM68 °FPassing clouds.2 mph69%30.27 "HgN/A
4:50 PM68 °FPassing clouds.9 mph69%30.27 "HgN/A
3:50 PM70 °FScattered clouds.8 mph69%30.27 "HgN/A
2:50 PM68 °FPartly sunny.9 mph69%30.30 "HgN/A
Weather by CustomWeather, © 2014

See weather overviewHow to use our weather pages